User: anonymous   Login
Location: Unspecified
(0.0000°N, 0.0000°E)
Time: 01:53:28
(UTC+00:00)
Language:

GOSAT - Orbit

View from above orbital plane
View from above orbital plane
View from above satellite
View from above satellite

Ground track
Ground track

The orbit data is extracted from the following two-line orbital elements,

1 33492U 09002A   16270.84037554 -.00000051  00000-0 -40795-6 0  9993
2 33492  98.1065  18.9775 0001444  69.8440 290.2920 14.67529522411208
Epoch (UTC): 26 September 2016 20:10:08
Eccentricity: 0.0001444
inclination: 98.1065°
perigee height: 668 km
apogee height: 670 km
right ascension of ascending node: 18.9775°
argument of perigee: 69.8440°
revolutions per day: 14.67529522
mean anomaly at epoch: 290.2920°
orbit number at epoch: 41120

The dashed part of the orbit path shows where the satellite is in the earth's shadow,  

DLR